Juneau, WI

12:00 AM CDT on April 28, 2017 (GMT -0500)
Dodge County

Weather History for KUNU - February, 2012

Change the Weather History Date:

Friday, February 10, 2012

  Actual Average Record
Temperature  
Mean Temperature 19 °F -  
Max Temperature 30 °F 28 °F 51 °F (1999)
Min Temperature 8 °F 15 °F -17 °F (1979)
Degree Days  
Heating Degree Days 46    
Moisture  
Dew Point 15 °F    
Average Humidity 76    
Maximum Humidity 100    
Minimum Humidity 52    
Precipitation  
Precipitation 0.00 in - - ()
Sea Level Pressure  
Sea Level Pressure 30.01 in    
Wind  
Wind Speed 12 mph (WNW)    
Max Wind Speed 26 mph    
Max Gust Speed 36 mph    
Visibility 7 miles    
Events Snow    
Averages and records for this station are not official NWS values.
T = Trace of Precipitation, MM = Missing Value Source: NWS Daily Summary

Daily Weather History Graph

Daily Weather History Graph

Search for Another Location

Airport or City:

Trip Planner

Search our weather history database for the weather conditions in past years. The results will help you decide how hot, cold, wet, or windy it might be!

Date:

Astronomy

Feb. 10, 2012 Rise Set
Actual Time 7:00 AM CST 5:18 PM CST
Civil Twilight 6:30 AM CST 5:47 PM CST
Nautical Twilight 5:57 AM CST 6:21 PM CST
Astronomical Twilight 5:23 AM CST 6:54 PM CST
Moon 9:04 PM CST (2/10) 8:01 AM CST (2/10)
Length of Visible Light 11h 16m
Length of Day
10h 17m
Waning Gibbous, 90% of the Moon is Illuminated
Feb 10
Waning Gibbous
Feb 14
Last Quarter
Feb 21
New
Feb 29
First Quarter
Mar 8
Full

Hourly Weather History & Observations

Time (CST) Temp. Windchill Dew Point Humidity Pressure Visibility Wind Dir Wind Speed Gust Speed Precip Events Conditions
12:15 AM 30.2 °F 20.8 °F 21.2 °F 69% 29.98 in 10.0 mi WSW 11.5 mph - N/A   Overcast
12:35 AM 30.2 °F 21.3 °F 21.2 °F 69% 29.97 in 10.0 mi SW 10.4 mph - N/A   Overcast
12:55 AM 30.2 °F 21.9 °F 21.2 °F 69% 29.97 in 10.0 mi SW 9.2 mph - N/A   Overcast
1:15 AM 30.2 °F 21.9 °F 23.0 °F 75% 29.96 in 10.0 mi SSW 9.2 mph - N/A   Overcast
1:35 AM 30.2 °F 21.9 °F 23.0 °F 75% 29.95 in 10.0 mi South 9.2 mph - N/A   Overcast
1:55 AM 30.2 °F 22.6 °F 23.0 °F 75% 29.95 in 10.0 mi SSW 8.1 mph - N/A   Overcast
2:35 AM 30.2 °F 20.8 °F 23.0 °F 75% 29.93 in 10.0 mi SSW 11.5 mph - N/A   Overcast
2:55 AM 30.2 °F 21.3 °F 23.0 °F 75% 29.92 in 10.0 mi SSW 10.4 mph - N/A   Overcast
3:15 AM 30.2 °F 20.8 °F 23.0 °F 75% 29.91 in 10.0 mi SSW 11.5 mph - N/A   Overcast
3:35 AM 30.2 °F 21.3 °F 23.0 °F 75% 29.90 in 10.0 mi SSW 10.4 mph - N/A   Overcast
3:55 AM 30.2 °F 21.3 °F 24.8 °F 80% 29.90 in 10.0 mi SSW 10.4 mph - N/A   Overcast
4:15 AM 30.2 °F 21.9 °F 24.8 °F 80% 29.90 in 10.0 mi SSW 9.2 mph - N/A   Overcast
4:35 AM 30.2 °F 22.6 °F 24.8 °F 80% 29.90 in 10.0 mi SSW 8.1 mph - N/A   Overcast
4:55 AM 30.2 °F 22.6 °F 24.8 °F 80% 29.89 in 7.0 mi SSW 8.1 mph - N/A   Overcast
5:15 AM 30.2 °F 22.6 °F 24.8 °F 80% 29.89 in 7.0 mi SSW 8.1 mph - N/A   Overcast
5:35 AM 30.2 °F 23.4 °F 26.6 °F 86% 29.89 in 7.0 mi SSW 6.9 mph - N/A   Overcast
5:55 AM 30.2 °F 23.4 °F 26.6 °F 86% 29.89 in 7.0 mi SSW 6.9 mph - N/A   Overcast
6:15 AM 30.2 °F 23.4 °F 26.6 °F 86% 29.89 in 5.0 mi SSW 6.9 mph - N/A Snow Light Snow
6:35 AM 30.2 °F 22.6 °F 26.6 °F 86% 29.89 in 4.0 mi SSW 8.1 mph - N/A Snow Light Snow
6:55 AM 30.2 °F 22.6 °F 26.6 °F 86% 29.89 in 4.0 mi SSW 8.1 mph - N/A Snow Light Snow
7:15 AM 30.2 °F 24.3 °F 26.6 °F 86% 29.89 in 3.0 mi SSW 5.8 mph - N/A Snow Light Snow
7:35 AM 30.2 °F 24.3 °F 28.4 °F 93% 29.90 in 5.0 mi SSW 5.8 mph - N/A Snow Light Snow
7:55 AM 30.2 °F 24.3 °F 28.4 °F 93% 29.90 in 2.5 mi SSW 5.8 mph - N/A Snow Light Snow
8:15 AM 30.2 °F 24.3 °F 30.2 °F 100% 29.90 in 1.8 mi SSW 5.8 mph - N/A Snow Light Snow
8:35 AM 30.2 °F 24.3 °F 30.2 °F 100% 29.90 in 1.2 mi SSW 5.8 mph - N/A Snow Light Snow
8:55 AM 30.2 °F 24.3 °F 30.2 °F 100% 29.89 in 1.0 mi SSW 5.8 mph - N/A Snow Light Snow
9:15 AM 30.2 °F 23.4 °F 30.2 °F 100% 29.89 in 1.8 mi SW 6.9 mph - N/A Snow Light Snow
9:35 AM 28.4 °F 17.0 °F 26.6 °F 93% 29.91 in 0.8 mi North 15.0 mph 27.6 mph N/A Snow Light Snow
9:55 AM 23.0 °F 8.3 °F 21.2 °F 93% 29.92 in 0.5 mi North 19.6 mph 27.6 mph N/A Snow Snow
10:15 AM 21.2 °F 3.9 °F 19.4 °F 93% 29.94 in 0.5 mi NNE 26.5 mph 35.7 mph N/A Snow Snow
10:55 AM 21.2 °F 6.0 °F 17.6 °F 86% 29.96 in 0.5 mi North 19.6 mph 27.6 mph N/A Snow Light Snow
11:35 AM 19.4 °F 2.8 °F 14.0 °F 80% 29.99 in - North 21.9 mph 34.5 mph N/A   Unknown
11:55 AM 17.6 °F 0.5 °F 14.0 °F 86% 30.01 in - North 21.9 mph 32.2 mph N/A   Overcast
12:15 PM 17.6 °F 0.5 °F 12.2 °F 79% 30.02 in - North 21.9 mph 32.2 mph N/A   Overcast
12:35 PM 17.6 °F 0.5 °F 12.2 °F 79% 30.02 in - North 21.9 mph 32.2 mph N/A   Overcast
12:55 PM 15.8 °F -1.5 °F 10.4 °F 79% 30.03 in - North 20.7 mph 35.7 mph N/A   Overcast
1:15 PM 17.6 °F 0.5 °F 12.2 °F 79% 30.04 in - North 21.9 mph 31.1 mph N/A   Overcast
1:35 PM 15.8 °F -1.5 °F 12.2 °F 86% 30.04 in - North 20.7 mph 27.6 mph N/A   Overcast
1:55 PM 17.6 °F 1.7 °F 10.4 °F 73% 30.05 in - North 18.4 mph 25.3 mph N/A   Overcast
2:15 PM 15.8 °F -0.6 °F 10.4 °F 79% 30.06 in - North 18.4 mph 28.8 mph N/A   Overcast
2:35 PM 14.0 °F -4.7 °F 8.6 °F 79% 30.07 in - North 23.0 mph 33.4 mph N/A   Overcast
2:55 PM 14.0 °F -3.9 °F 8.6 °F 79% 30.09 in - North 20.7 mph 32.2 mph N/A   Overcast
3:15 PM 14.0 °F -3.0 °F 6.8 °F 73% 30.09 in - North 18.4 mph 26.5 mph N/A   Overcast
3:35 PM 14.0 °F -3.4 °F 3.2 °F 62% 30.11 in - North 19.6 mph 26.5 mph N/A   Overcast
3:55 PM 14.0 °F -3.0 °F 5.0 °F 67% 30.12 in - North 18.4 mph 25.3 mph N/A   Overcast
4:15 PM 14.0 °F -2.5 °F 3.2 °F 62% 30.12 in 10.0 mi North 17.3 mph 21.9 mph N/A   Mostly Cloudy
4:35 PM 14.0 °F -0.2 °F 3.2 °F 62% 30.13 in 10.0 mi NNW 12.7 mph 21.9 mph N/A   Overcast
4:55 PM 14.0 °F -0.8 °F 3.2 °F 62% 30.13 in 10.0 mi North 13.8 mph 17.3 mph N/A   Mostly Cloudy
5:15 PM 14.0 °F -0.2 °F 1.4 °F 57% 30.15 in 10.0 mi North 12.7 mph - N/A   Scattered Clouds
5:55 PM 12.2 °F -0.2 °F -0.4 °F 57% 30.16 in 10.0 mi NNW 9.2 mph - N/A   Clear
6:15 PM 10.4 °F 2.2 °F -0.4 °F 62% 30.17 in 10.0 mi NNW 4.6 mph - N/A   Clear
6:35 PM 10.4 °F 0.8 °F -2.2 °F 57% 30.18 in 10.0 mi NNW 5.8 mph - N/A   Clear
6:55 PM 10.4 °F 0.8 °F -2.2 °F 57% 30.18 in 10.0 mi NNW 5.8 mph - N/A   Clear
7:15 PM 10.4 °F 0.8 °F -2.2 °F 57% 30.19 in 10.0 mi NNW 5.8 mph - N/A   Clear
7:35 PM 8.6 °F -2.6 °F -2.2 °F 62% 30.19 in 10.0 mi NW 6.9 mph - N/A   Clear
7:55 PM 10.4 °F -1.5 °F -4.0 °F 52% 30.20 in 10.0 mi NNW 8.1 mph - N/A   Clear
8:15 PM 10.4 °F -2.4 °F -4.0 °F 52% 30.21 in 10.0 mi NNW 9.2 mph - N/A   Clear
8:35 PM 10.4 °F -4.8 °F -4.0 °F 52% 30.22 in 10.0 mi NNW 12.7 mph - N/A   Clear
8:55 PM 10.4 °F -5.4 °F -4.0 °F 52% 30.23 in 10.0 mi NNW 13.8 mph 20.7 mph N/A   Clear
9:15 PM 10.4 °F -5.4 °F -4.0 °F 52% 30.24 in 10.0 mi NNW 13.8 mph 20.7 mph N/A   Clear
9:35 PM 10.4 °F -6.6 °F -2.2 °F 57% 30.24 in 10.0 mi NNW 16.1 mph 23.0 mph N/A   Clear
9:55 PM 10.4 °F -4.1 °F -2.2 °F 57% 30.24 in 10.0 mi NNW 11.5 mph - N/A   Clear
10:15 PM 8.6 °F -2.6 °F -4.0 °F 57% 30.26 in 10.0 mi NNW 6.9 mph - N/A   Clear
10:35 PM 8.6 °F -5.5 °F -4.0 °F 57% 30.26 in 10.0 mi NW 10.4 mph - N/A   Clear
10:55 PM 8.6 °F -2.6 °F -4.0 °F 57% 30.26 in 10.0 mi NW 6.9 mph - N/A   Clear
11:15 PM 8.6 °F -2.6 °F -4.0 °F 57% 30.27 in 10.0 mi NW 6.9 mph - N/A   Clear
11:35 PM 8.6 °F -3.7 °F -4.0 °F 57% 30.27 in 10.0 mi NW 8.1 mph - N/A   Clear
11:55 PM 8.6 °F -5.5 °F -2.2 °F 62% 30.27 in 10.0 mi NW 10.4 mph - N/A   Clear